[[{"header":{"parameterUnit":"m.s-1","parameterCategory":1,"la1":30.2992,"la2":30.254,"lo1":-89.0895,"lo2":-89.0443,"dy":0.0025,"dx":0.0025,"nx":19,"ny":19,"refTime":"2026-03-26T03:00:00:Z","depth":0,"parameterNumber":2,"parameterNumberName":"U-component_of_WINDS"},"data":[0,0,0,0.3327,0.3325,0.3217,0.3216,0.3082,0.3081,0,0,0,0,0,0,0,0,0,0,0,0.3362,0.3361,0.3327,0.3324,0.3217,0.3216,0.3082,0.3081,0,0,0,0,0,0,0,0,0,0,0,0.3362,0.3361,0.336,0.3324,0.3217,0.3216,0.3083,0.3163,0,0,0,0,0,0,0,0,0,0,0.3267,0.3302,0.3361,0.336,0.3323,0.3217,0.3216,0.3166,0.3158,0.3133,0,0.3112,0,0.3094,0.3072,0.3072,0,0,0,0.3322,0.3309,0.3277,0.336,0.3322,0.3217,0.3265,0.3161,0.3152,0.3121,0.311,0.3105,0.3092,0.3072,0.3071,0.2934,0.2934,0,0,0.3328,0.3344,0.3284,0.3271,0.3288,0.3268,0.3261,0.3155,0.3144,0.3109,0.3102,0.309,0.3071,0.307,0.2935,0.2934,0,0,0,0.3347,0.3348,0.3319,0.3277,0.3257,0.3265,0.3257,0.3149,0.3138,0.31,0.3088,0.307,0.3068,0.2935,0.2935,0.2923,0,0,0,0.335,0.3359,0.3322,0.333,0.3259,0.3202,0.3253,0.3145,0.3133,0.3089,0.307,0.3067,0.2936,0.2935,0.2924,0.2915,0,0,0,0.3368,0.3361,0.3346,0.3331,0.3285,0.3203,0.3186,0.3142,0.3126,0.3072,0.3067,0.2936,0.2935,0.2926,0.2917,0.2883,0,0,0,0.3391,0.3338,0.3346,0.3282,0.3286,0.3196,0.3186,0.3119,0.3071,0.3069,0.2936,0.2935,0.2926,0.2919,0.2885,0.2858,0.2848,0,0,0.3333,0.3332,0.3292,0.3297,0.3209,0.3212,0.3122,0.3064,0.3045,0.2972,0.2968,0.2924,0.2917,0.2884,0.2786,0.2779,0,0,0,0.3279,0.3252,0.3225,0.318,0.3134,0.3093,0.3047,0.3025,0.2962,0.3011,0.2902,0.2897,0.2877,0.2863,0.2857,0.2838,0.2929,0.2929,0.2929,0.3221,0.3198,0.3132,0.3095,0.3052,0.3003,0.2966,0.2928,0.2919,0.2893,0.2872,0.2815,0.28,0.2795,0.2776,0.2855,0.2855,0.2855,0.2855,0.3134,0.3091,0.3078,0.3009,0.2985,0.2926,0.2877,0.2872,0.2814,0.283,0.2811,0.2831,0.2787,0.2769,0.2854,0.2854,0.2854,0.2854,0.2854,0.3094,0.3069,0.3043,0.2974,0.2923,0.2888,0.2832,0.2812,0.2793,0.2773,0.2748,0.2748,0.2746,0.2763,0.2762,0.2762,0.2762,0.2762,0.2762,0.3063,0.3033,0.2989,0.2934,0.2901,0.2856,0.2805,0.2772,0.2731,0.272,0.272,0.2713,0.2787,0.2806,0.2759,0.2759,0.276,0.276,0.276,0.2986,0.2999,0.2931,0.2898,0.283,0.2781,0.2755,0.2689,0.2659,0.2632,0.2627,0.2685,0.2683,0.2688,0.2704,0.2633,0.2633,0.2633,0.2633,0.2952,0.2948,0.2873,0.2821,0.2769,0.2737,0.2659,0.2618,0.2578,0.2557,0.2564,0.2583,0.2589,0.2583,0.2591,0.2605,0.2511,0.251,0.251,0.2903,0.2893,0.2831,0.2791,0.2736,0.2689,0.2615,0.2555,0.2513,0.2505,0.2541,0.2546,0.2576,0.2588,0.2583,0.2595,0.2621,0,0]},{"header":{"parameterUnit":"m.s-1","parameterCategory":1,"la1":30.2992,"la2":30.254,"lo1":-89.0895,"lo2":-89.0443,"dy":0.0025,"dx":0.0025,"nx":19,"ny":19,"refTime":"2026-03-26T03:00:00:Z","depth":0,"parameterNumber":3,"parameterNumberName":"V-component_of_WINDS"},"data":[0,0,0,-0.3306,-0.3302,-0.3106,-0.3105,-0.2874,-0.2872,0,0,0,0,0,0,0,0,0,0,0,-0.3379,-0.3378,-0.3306,-0.3302,-0.3106,-0.3105,-0.2874,-0.2872,0,0,0,0,0,0,0,0,0,0,0,-0.3379,-0.3378,-0.3377,-0.3301,-0.3107,-0.3105,-0.2875,-0.3015,0,0,0,0,0,0,0,0,0,0,-0.3202,-0.3283,-0.3378,-0.3376,-0.33,-0.3107,-0.3105,-0.3021,-0.3006,-0.2972,0,-0.2947,0,-0.2906,-0.2858,-0.2857,0,0,0,-0.3291,-0.3296,-0.3231,-0.3376,-0.3299,-0.3107,-0.3191,-0.3013,-0.2996,-0.2952,-0.2944,-0.2934,-0.2902,-0.2857,-0.2856,-0.2699,-0.2699,0,0,-0.3301,-0.3351,-0.3243,-0.322,-0.3255,-0.3198,-0.3186,-0.3002,-0.2996,-0.2943,-0.2929,-0.2899,-0.2855,-0.2854,-0.2699,-0.2699,0,0,0,-0.334,-0.3359,-0.3297,-0.323,-0.3194,-0.3192,-0.3178,-0.3004,-0.298,-0.2926,-0.2896,-0.2854,-0.2851,-0.2699,-0.2699,-0.2738,0,0,0,-0.3346,-0.3381,-0.3302,-0.333,-0.3198,-0.3097,-0.3185,-0.2992,-0.297,-0.2897,-0.2854,-0.2849,-0.2699,-0.2699,-0.2737,-0.2749,0,0,0,-0.3386,-0.3386,-0.3363,-0.3333,-0.3251,-0.3099,-0.3064,-0.2986,-0.2952,-0.2857,-0.2849,-0.27,-0.2699,-0.2737,-0.2747,-0.2722,0,0,0,-0.3443,-0.34,-0.3364,-0.3303,-0.3253,-0.3125,-0.3064,-0.2966,-0.2889,-0.2853,-0.2699,-0.2699,-0.2737,-0.2747,-0.2721,-0.271,-0.271,0,0,-0.3416,-0.3398,-0.3358,-0.3321,-0.3212,-0.3151,-0.3046,-0.2928,-0.2873,-0.2759,-0.2755,-0.2738,-0.2747,-0.2722,-0.269,-0.269,0,0,0,-0.3366,-0.3338,-0.3299,-0.3229,-0.3139,-0.3061,-0.2954,-0.291,-0.2811,-0.2826,-0.272,-0.2724,-0.2707,-0.2699,-0.2699,-0.268,-0.2698,-0.2698,-0.2698,-0.3399,-0.3331,-0.326,-0.3169,-0.3101,-0.2991,-0.2929,-0.2849,-0.28,-0.2776,-0.2743,-0.2732,-0.2725,-0.2724,-0.2706,-0.273,-0.273,-0.273,-0.2731,-0.3352,-0.3302,-0.3237,-0.3146,-0.3073,-0.2994,-0.2885,-0.2852,-0.2766,-0.2752,-0.2733,-0.2725,-0.2727,-0.2707,-0.2733,-0.2732,-0.2732,-0.2732,-0.2732,-0.3367,-0.3331,-0.3279,-0.3169,-0.3092,-0.2998,-0.292,-0.2855,-0.2794,-0.2776,-0.2733,-0.2732,-0.2723,-0.276,-0.276,-0.276,-0.276,-0.276,-0.276,-0.3404,-0.3343,-0.3285,-0.3185,-0.313,-0.305,-0.2937,-0.288,-0.2801,-0.276,-0.276,-0.2713,-0.274,-0.2749,-0.2759,-0.2759,-0.2759,-0.2759,-0.2759,-0.3383,-0.3377,-0.3289,-0.3235,-0.3109,-0.3036,-0.2955,-0.2845,-0.2789,-0.2751,-0.2706,-0.2737,-0.2714,-0.2713,-0.272,-0.2722,-0.2722,-0.2722,-0.2722,-0.3396,-0.3378,-0.3272,-0.3189,-0.31,-0.3017,-0.2916,-0.2826,-0.2732,-0.2692,-0.2682,-0.2685,-0.2687,-0.2662,-0.2663,-0.2668,-0.2656,-0.2656,-0.2656,-0.338,-0.335,-0.3278,-0.3188,-0.3084,-0.2996,-0.2899,-0.2803,-0.2694,-0.2652,-0.2659,-0.2662,-0.2666,-0.2671,-0.2631,-0.2633,-0.2641,0,0]}]]